{"data":{"norad_id":64076,"epoch":"2026-09-20T08:07:29.263296Z","epoch_age_seconds":157470,"freshness":"FRESH","line1":"1 64076U 25107N   26263.33853314  .00120786  00000+0  92768-3 0  9995","line2":"2 64076  43.0007   4.7382 0003991 288.7093  71.3342 15.70923159 77918","mean_motion":15.70923159,"eccentricity":0.0003991,"inclination_deg":43.0007,"raan_deg":4.7382,"arg_perigee_deg":288.7093,"mean_anomaly_deg":71.3342,"bstar":0.00092768,"rev_number":7791,"period_min":91.665845764007,"perigee_km":353.56969126799,"apogee_km":358.94508486854,"semimajor_km":6734.3943880683,"source":"CELESTRAK","updated_at":"2026-09-21T09:00:35.194047Z"}}